Jaipur / Sanganer, India

10:14 AM IST on January 18, 2017 (GMT +0530)
Jaipur / Sanganer

Weather History for 42348 - March, 2013

Change the Weather History Date:

Thursday, March 7, 2013

  Actual Average Record
Temperature  
Mean Temperature 75 °F -  
Max Temperature 89 °F - - ()
Min Temperature 61 °F - - ()
Cooling Degree Days 10    
Growing Degree Days 25 (Base 50)    
Moisture  
Dew Point 40 °F    
Average Humidity 31    
Maximum Humidity 68    
Minimum Humidity 5    
Precipitation  
Precipitation 0.00 in - - ()
Sea Level Pressure  
Sea Level Pressure 30.02 in    
Wind  
Wind Speed 2 mph ()    
Max Wind Speed 8 mph    
Max Gust Speed -    
Visibility 2.3 miles    
Events      
T = Trace of Precipitation, MM = Missing Value Source: Averaged Metar Reports

Daily Weather History Graph

Daily Weather History Graph

Search for Another Location

Airport or City:

Trip Planner

Search our weather history database for the weather conditions in past years. The results will help you decide how hot, cold, wet, or windy it might be!

Date:

Astronomy

Mar. 07, 2013 Rise Set
Actual Time 6:44 AM IST 6:31 PM IST
Civil Twilight 6:21 AM IST 6:54 PM IST
Nautical Twilight 5:54 AM IST 7:21 PM IST
Astronomical Twilight 5:27 AM IST 7:48 PM IST
Moon 3:00 AM IST (3/7) 2:08 PM IST (3/7)
Length of Visible Light 12h 32m
Length of Day
11h 46m
Waning Crescent, 24% of the Moon is Illuminated
Mar 7
Waning Crescent
Mar 12
New
Mar 19
First Quarter
Mar 27
Full
Apr 3
Last Quarter

Hourly Weather History & Observations

Time (IST) Temp. Dew Point Humidity Pressure Visibility Wind Dir Wind Speed Gust Speed Precip Events Conditions
2:00 AM 69.8 °F 50.0 °F 49% 30.04 in 2.5 mi Calm Calm - N/A   Haze
2:30 AM 68 °F 51 °F 43% 29.99 in 2 mi Calm Calm - -   Haze
4:00 AM 66.2 °F 48.2 °F 52% 30.01 in 2.5 mi Calm Calm - N/A   Haze
5:00 AM 64.4 °F 51.8 °F 64% 30.01 in 2.5 mi Calm Calm - N/A   Haze
6:00 AM 62.6 °F 50.0 °F 63% 30.04 in 2.5 mi Calm Calm - N/A   Haze
7:00 AM 60.8 °F 48.2 °F 63% 30.04 in 2.5 mi Calm Calm - N/A   Haze
8:00 AM 66.2 °F 51.8 °F 60% 30.06 in 2.5 mi Calm Calm - N/A   Haze
8:30 AM 70 °F 62 °F 68% 30.04 in 1 mi Calm Calm - -   Haze
9:00 AM 73.4 °F 50.0 °F 44% 30.09 in 2.5 mi Calm Calm - N/A   Haze
10:00 AM 78.8 °F 42.8 °F 28% 30.12 in 2.5 mi SSE 3.5 mph - N/A   Haze
11:00 AM 82.4 °F 35.6 °F 19% 30.09 in 2.5 mi West 5.8 mph - N/A   Haze
11:30 AM 84 °F 43 °F 14% 30.01 in 1 mi West 4.6 mph - -   Haze
2:00 PM 87.8 °F 32.0 °F 14% 30.04 in 3.1 mi Variable 8.1 mph - N/A   Haze
2:30 PM 89 °F 38 °F 9% 29.94 in 2 mi SE 6.9 mph - -   Haze
3:00 PM 87.8 °F 30.2 °F 13% 30.01 in 3.1 mi Variable 8.1 mph - N/A   Haze
5:00 PM 87.8 °F 26.6 °F 11% 30.01 in 3.1 mi Variable 3.5 mph - N/A   Haze
5:30 PM 88 °F 27 °F 5% 29.91 in 2 mi NNW 3.5 mph - -   Haze
5:30 PM 87.8 °F 28.4 °F 12% 29.98 in 3.1 mi NNW 3.5 mph - N/A   Haze
6:00 PM 86.0 °F 26.6 °F 12% 30.01 in 3.1 mi Variable 3.5 mph - N/A   Haze
7:00 PM 82.4 °F 30.2 °F 15% 30.01 in 2.5 mi Variable 3.5 mph - N/A   Haze
7:30 PM 80.6 °F 32.0 °F 17% 30.04 in 2.5 mi Variable 2.3 mph - N/A   Haze
8:00 PM 77.0 °F 37.4 °F 24% 30.04 in 2.5 mi Calm Calm - N/A   Haze
8:30 PM 76 °F 38 °F 15% 29.98 in 1 mi Calm Calm - -   Haze
10:00 PM 71.6 °F 39.2 °F 31% 30.06 in 1.6 mi ENE 4.6 mph - N/A   Haze
11:00 PM 71.6 °F 37.4 °F 29% 30.06 in 1.6 mi Calm Calm - N/A   Haze
11:30 PM 70 °F 40 °F 23% 30.01 in 1 mi NE 2.3 mph - -   Haze